Regional Weather Roundup
Issued by NWS

Home | Current Version | Previous Version | Graphics & Text | Print | Product List | Glossary Off
Versions: 1 2 3 4 5 6 7 8 9 10 11 12 13 14 15 16 17 18 19 20 21 22 23 24 25 26 27 28 29 30 31 32 33 34 35 36 37 38 39 40 41 42 43 44 45 46 47 48 49 50

000
ASUS43 KTOP 260059
RWRKS

WEATHER ROUNDUP FOR KANSAS
NATIONAL WEATHER SERVICE GOODLAND KS
800 PM CDT MON MAY 25 2015

NOTE:  "FAIR" INDICATES FEW OR NO CLOUDS BELOW 12,000 FEET WITH NO
SIGNIFICANT WEATHER AND/OR OBSTRUCTIONS TO VISIBILITY.

KSZ001>006-013>018-027>032-041>047-260200-
NORTHWEST KANSAS

CITY           SKY/WX    TMP DP  RH WIND       PRES   REMARKS
GOODLAND       SUNNY     65  47  52 NW14      29.85F
HAYS           CLOUDY    70  57  64 SE7       29.79R
HILL CITY      CLOUDY    73  51  46 NW8       29.79R
RUSSELL        CLOUDY    66  59  78 SE13      29.77R
$$

KSZ061>065-074>080-084>089-260200-
SOUTHWEST KANSAS

CITY           SKY/WX    TMP DP  RH WIND       PRES   REMARKS
DODGE CITY     CLOUDY    71  51  49 SW15      29.80R
ELKHART          N/A     72  49  44 SW5         N/A
GARDEN CITY    MOCLDY    72  51  47 SW6       29.80R
GREAT BEND     CLOUDY    70  63  78 E7        29.80R
LIBERAL        PTCLDY    70  50  49 S14       29.83R
$$

KSZ066>073-081>083-090>101-260200-
SOUTHEAST KANSAS

CITY           SKY/WX    TMP DP  RH WIND       PRES   REMARKS
CHANUTE        CLOUDY    73  68  84 SE6       29.81R
COFFEYVILLE    LGT RAIN  67  59  75 S23G35    29.81F
HUTCHINSON     CLOUDY    67  56  67 S24G35    29.80R
NEWTON         CLOUDY    66  55  68 SW14      29.85R
PARSONS        CLOUDY    75  68  78 S8        29.82S
WICHITA INTL   TSTM      62  58  86 SW15      29.86R FOG
WICHITA JABRA  TSTM      64  56  75 W15       29.84R
WICHITA MCCONL TSTM      61  57  88 SW17      29.84R
WINFIELD       LGT RAIN  63  60  90 CALM      29.85R FOG
$$

KSZ007>012-019>026-033>040-048>060-102>105-260200-
NORTHEAST KANSAS

CITY           SKY/WX    TMP DP  RH WIND       PRES   REMARKS
CONCORDIA      CLOUDY    62  58  86 S3        29.77S
EMPORIA        CLOUDY    73  66  78 S9        29.80R
LAWRENCE       CLOUDY    76  64  66 S9        29.82R
MANHATTAN      RAIN      63  60  90 SW6       29.80R FOG
OLATHE IND     CLOUDY    74  66  76 SE7       29.83S
OLATHE EXE     CLOUDY    74  66  76 S5        29.82S
SALINA         LGT RAIN  66  54  65 S16       29.79R
TOPEKA BILLARD MOCLDY    76  65  68 S6        29.81R
TOPEKA FORBES  CLOUDY    76  65  68 S8        29.80R
$$



USA.gov is the U.S. government's official web portal to all federal, state and local government web resources and services.